When you browse on this site, cookies collect data to enhance your experience and personalize the content and advertising you see.
Visit our Privacy Policy to learn more. By continuing to use the site, you agree to this use of cookies and data.
  • In Österreich
  • Länderverzeichnis
  • Für 7 Tage
  • Wassertemperatur
  • Wetterkarte
  • News
  • Widgets
  • user-avatar
    Anmelden

    Stündliche Wetter Valencia

    Heute, 21 Januar, Dienstag

    Zeit Temperatur Niederschläge Wind Luftdruck Luftfeuchtigkeit
    00:00 +24°C° 0 mm 1 m/S 717 mmHg 93%
    01:00 +23°C° 0 mm 1 m/S 717 mmHg 91%
    02:00 +21°C° 0 mm 0 m/S 717 mmHg 91%
    03:00 +21°C° 0 mm 0 m/S 717 mmHg 92%
    04:00 +21°C° 0 mm 0 m/S 717 mmHg 92%
    05:00 +21°C° 0 mm 0 m/S 717 mmHg 90%
    06:00 +22°C° 0 mm 0 m/S 717 mmHg 88%
    07:00 +22°C° 0 mm 0 m/S 718 mmHg 85%
    08:00 +26°C° 0 mm 1 m/S 718 mmHg 76%
    09:00 +29°C° 0 mm 1 m/S 719 mmHg 66%
    10:00 +31°C° 0 mm 1 m/S 719 mmHg 57%
    11:00 +32°C° 0 mm 1 m/S 718 mmHg 53%
    12:00 +32°C° 0 mm 1 m/S 718 mmHg 50%
    13:00 +33°C° 0 mm 1 m/S 717 mmHg 47%
    14:00 +32°C° 0 mm 1 m/S 716 mmHg 53%
    15:00 +30°C° 0 mm 1 m/S 715 mmHg 59%
    16:00 +29°C° 0 mm 1 m/S 715 mmHg 65%
    17:00 +28°C° 0 mm 1 m/S 715 mmHg 73%
    18:00 +26°C° 0 mm 2 m/S 715 mmHg 80%
    19:00 +24°C° 0 mm 2 m/S 715 mmHg 88%
    20:00 +24°C° 0 mm 2 m/S 716 mmHg 89%
    21:00 +24°C° 0 mm 1 m/S 716 mmHg 90%
    22:00 +23°C° 0 mm 1 m/S 717 mmHg 91%
    23:00 +23°C° 0 mm 1 m/S 717 mmHg 92%

    Morgen, 22 Januar, Mittwoch

    Zeit Temperatur Niederschläge Wind Luftdruck Luftfeuchtigkeit
    00:00 +23°C° 0 mm 1 m/S 716 mmHg 93%
    01:00 +23°C° 0 mm 1 m/S 716 mmHg 94%
    02:00 +23°C° 0 mm 1 m/S 716 mmHg 94%
    03:00 +23°C° 0 mm 1 m/S 716 mmHg 95%
    04:00 +23°C° 0 mm 1 m/S 716 mmHg 95%
    05:00 +23°C° 0 mm 1 m/S 716 mmHg 93%
    06:00 +24°C° 0 mm 1 m/S 716 mmHg 92%
    07:00 +24°C° 0 mm 1 m/S 717 mmHg 90%
    08:00 +26°C° 0.1 mm 1 m/S 717 mmHg 80%
    09:00 +29°C° 0.1 mm 1 m/S 718 mmHg 71%
    10:00 +31°C° 0.1 mm 1 m/S 719 mmHg 61%
    11:00 +29°C° 0.4 mm 0 m/S 718 mmHg 61%
    12:00 +29°C° 0.4 mm 0 m/S 717 mmHg 62%
    13:00 +29°C° 0.4 mm 0 m/S 716 mmHg 62%
    14:00 +29°C° 0.2 mm 0 m/S 716 mmHg 63%
    15:00 +30°C° 0.2 mm 1 m/S 715 mmHg 64%
    16:00 +30°C° 0.2 mm 1 m/S 715 mmHg 64%
    17:00 +28°C° 0.2 mm 1 m/S 715 mmHg 71%
    18:00 +27°C° 0.2 mm 1 m/S 715 mmHg 77%
    19:00 +26°C° 0.2 mm 1 m/S 716 mmHg 83%
    20:00 +25°C° 0 mm 1 m/S 716 mmHg 85%
    21:00 +25°C° 0 mm 1 m/S 716 mmHg 86%
    22:00 +24°C° 0 mm 2 m/S 717 mmHg 88%
    23:00 +24°C° 0 mm 2 m/S 716 mmHg 90%

    übermorgen, 23 Januar, Donnerstag

    Zeit Temperatur Niederschläge Wind Luftdruck Luftfeuchtigkeit
    00:00 +24°C° 0 mm 1 m/S 716 mmHg 91%
    01:00 +23°C° 0 mm 1 m/S 716 mmHg 93%
    02:00 +23°C° 0 mm 1 m/S 715 mmHg 94%
    03:00 +23°C° 0 mm 1 m/S 715 mmHg 94%
    04:00 +21°C° 0 mm 2 m/S 715 mmHg 95%
    05:00 +23°C° 0 mm 2 m/S 715 mmHg 93%
    06:00 +23°C° 0 mm 2 m/S 716 mmHg 92%
    07:00 +23°C° 0 mm 2 m/S 717 mmHg 90%
    08:00 +25°C° 0 mm 2 m/S 717 mmHg 82%
    09:00 +27°C° 0 mm 2 m/S 718 mmHg 75%
    10:00 +29°C° 0 mm 2 m/S 718 mmHg 67%
    11:00 +30°C° 0 mm 2 m/S 717 mmHg 62%
    12:00 +30°C° 0 mm 3 m/S 717 mmHg 57%
    13:00 +31°C° 0 mm 3 m/S 716 mmHg 52%
    14:00 +30°C° 0 mm 3 m/S 716 mmHg 55%
    15:00 +29°C° 0 mm 3 m/S 715 mmHg 59%
    16:00 +28°C° 0 mm 3 m/S 714 mmHg 63%
    17:00 +27°C° 0 mm 3 m/S 715 mmHg 71%
    18:00 +25°C° 0 mm 2 m/S 715 mmHg 79%
    19:00 +23°C° 0 mm 2 m/S 715 mmHg 87%
    20:00 +23°C° 0 mm 2 m/S 716 mmHg 89%
    21:00 +23°C° 0 mm 2 m/S 716 mmHg 90%
    22:00 +21°C° 0 mm 2 m/S 716 mmHg 91%
    23:00 +21°C° 0 mm 2 m/S 716 mmHg 92%

    24 Januar, Freitag

    Zeit Temperatur Niederschläge Wind Luftdruck Luftfeuchtigkeit
    00:00 +21°C° 0 mm 2 m/S 716 mmHg 93%
    01:00 +21°C° 0 mm 2 m/S 716 mmHg 94%
    02:00 +21°C° 0 mm 2 m/S 716 mmHg 94%
    03:00 +21°C° 0 mm 2 m/S 716 mmHg 94%
    04:00 +21°C° 0 mm 2 m/S 716 mmHg 94%
    05:00 +21°C° 0 mm 2 m/S 716 mmHg 92%
    06:00 +21°C° 0 mm 2 m/S 717 mmHg 91%
    07:00 +23°C° 0 mm 2 m/S 718 mmHg 89%
    08:00 +24°C° 0 mm 2 m/S 718 mmHg 80%
    09:00 +26°C° 0 mm 2 m/S 719 mmHg 72%
    10:00 +28°C° 0 mm 2 m/S 719 mmHg 63%
    11:00 +29°C° 0 mm 2 m/S 719 mmHg 59%
    12:00 +30°C° 0 mm 2 m/S 718 mmHg 55%
    13:00 +31°C° 0 mm 2 m/S 717 mmHg 51%
    14:00 +30°C° 0 mm 2 m/S 717 mmHg 53%
    15:00 +29°C° 0 mm 2 m/S 716 mmHg 54%
    16:00 +28°C° 0 mm 3 m/S 716 mmHg 56%
    17:00 +26°C° 0 mm 2 m/S 716 mmHg 64%
    18:00 +24°C° 0 mm 2 m/S 716 mmHg 71%
    19:00 +21°C° 0 mm 2 m/S 716 mmHg 79%
    20:00 +21°C° 0 mm 2 m/S 717 mmHg 81%
    21:00 +20°C° 0 mm 2 m/S 717 mmHg 83%
    22:00 +20°C° 0 mm 2 m/S 718 mmHg 85%
    23:00 +20°C° 0 mm 2 m/S 717 mmHg 88%

    25 Januar, Samstag

    Zeit Temperatur Niederschläge Wind Luftdruck Luftfeuchtigkeit
    00:00 +20°C° 0 mm 2 m/S 717 mmHg 91%
    01:00 +20°C° 0 mm 2 m/S 717 mmHg 94%
    02:00 +20°C° 0 mm 2 m/S 717 mmHg 94%
    03:00 +20°C° 0 mm 2 m/S 717 mmHg 94%
    04:00 +21°C° 0 mm 1 m/S 717 mmHg 94%
    05:00 +22°C° 0 mm 1 m/S 717 mmHg 92%
    06:00 +22°C° 0 mm 1 m/S 718 mmHg 91%
    07:00 +22°C° 0 mm 1 m/S 718 mmHg 90%
    08:00 +25°C° 0 mm 1 m/S 719 mmHg 79%
    09:00 +27°C° 0 mm 1 m/S 719 mmHg 69%
    10:00 +29°C° 0 mm 1 m/S 720 mmHg 59%
    11:00 +30°C° 0 mm 1 m/S 719 mmHg 55%
    12:00 +31°C° 0 mm 1 m/S 719 mmHg 52%
    13:00 +32°C° 0 mm 1 m/S 718 mmHg 48%
    14:00 +31°C° 0 mm 2 m/S 718 mmHg 54%
    15:00 +30°C° 0 mm 2 m/S 717 mmHg 60%
    16:00 +28°C° 0 mm 2 m/S 716 mmHg 66%
    17:00 +27°C° 0 mm 2 m/S 717 mmHg 74%
    18:00 +25°C° 0 mm 2 m/S 717 mmHg 82%
    19:00 +23°C° 0 mm 2 m/S 717 mmHg 90%
    20:00 +23°C° 0 mm 2 m/S 717 mmHg 91%
    21:00 +23°C° 0 mm 1 m/S 718 mmHg 92%
    22:00 +22°C° 0 mm 1 m/S 718 mmHg 93%
    23:00 +22°C° 0 mm 1 m/S 718 mmHg 93%

    26 Januar, Sonntag

    Zeit Temperatur Niederschläge Wind Luftdruck Luftfeuchtigkeit
    00:00 +22°C° 0 mm 1 m/S 717 mmHg 94%
    01:00 +22°C° 0 mm 1 m/S 717 mmHg 94%
    02:00 +22°C° 0 mm 1 m/S 717 mmHg 94%
    03:00 +22°C° 0 mm 1 m/S 717 mmHg 94%
    04:00 +22°C° 0 mm 1 m/S 717 mmHg 93%
    05:00 +23°C° 0 mm 1 m/S 717 mmHg 92%
    06:00 +23°C° 0 mm 1 m/S 718 mmHg 91%
    07:00 +23°C° 0 mm 1 m/S 719 mmHg 90%
    08:00 +25°C° 0.1 mm 1 m/S 719 mmHg 80%
    09:00 +28°C° 0.1 mm 1 m/S 719 mmHg 71%
    10:00 +30°C° 0.1 mm 1 m/S 719 mmHg 62%
    11:00 +30°C° 0.4 mm 1 m/S 719 mmHg 61%
    12:00 +30°C° 0.4 mm 2 m/S 718 mmHg 60%
    13:00 +31°C° 0.4 mm 2 m/S 717 mmHg 59%
    14:00 +30°C° 0.3 mm 2 m/S 717 mmHg 63%
    15:00 +29°C° 0.3 mm 2 m/S 716 mmHg 66%
    16:00 +28°C° 0.3 mm 2 m/S 716 mmHg 70%
    17:00 +26°C° 0 mm 2 m/S 716 mmHg 76%
    18:00 +25°C° 0 mm 2 m/S 716 mmHg 83%
    19:00 +23°C° 0 mm 2 m/S 717 mmHg 90%
    20:00 +23°C° 0 mm 2 m/S 717 mmHg 91%
    21:00 +21°C° 0 mm 2 m/S 717 mmHg 91%
    22:00 +21°C° 0 mm 2 m/S 718 mmHg 91%
    23:00 +21°C° 0 mm 2 m/S 717 mmHg 92%
    Mehr zeigen